Location: Rounton
(54.4000°N, 1.3500°W)
Time: 14:10:25
(UTC+00:00)

Altair - Pass Details

Date: 05 December 2021
Orbit: 1501 x 1683 km, 47.2° (Epoch: 19 January)

Event Time Altitude Azimuth Distance (km) Brightness Sun altitude
Rises 23:09:15 0° 280° (W) 4,649 10.2 -56.9°
Enters shadow 23:10:53 - 273° (W) 4,316 10.0 -57.0°
Reaches altitude 10° 23:16:30 10° 242° (WSW) 3,650 - -57.2°
Maximum altitude 23:17:28 10° 236° (SW) 3,634 - -57.3°
Drops below altitude 10° 23:18:26 10° 230° (SW) 3,649 - -57.3°
Sets 23:25:43 0° 191° (SSW) 4,642 - -57.6°
